Time,TemperatureF,DewpointF,PressureIn,WindDirection,WindDirectionDegrees,WindSpeedMPH,WindSpeedGustMPH,Humidity,HourlyPrecipIn,Conditions,Clouds,dailyrainin,SoftwareType,DateUTC
2014-02-18 00:08:00,36.0,26.5,29.66,SW,225,3.2,-999.0,68,-99.99,,,0.00,Acu-Link.com,2014-02-18 06:08:00,
2014-02-18 00:23:00,36.7,26.4,29.66,South,180,7.3,-999.0,66,-99.99,,,0.00,Acu-Link.com,2014-02-18 06:23:00,
2014-02-18 00:38:00,36.5,26.2,29.65,SSE,157,7.3,-999.0,66,-99.99,,,0.00,Acu-Link.com,2014-02-18 06:38:00,
2014-02-18 00:53:00,35.6,26.1,29.65,South,180,7.3,-999.0,68,-99.99,,,0.00,Acu-Link.com,2014-02-18 06:53:00,
2014-02-18 01:08:00,35.6,26.1,29.64,SSE,157,7.3,-999.0,68,-99.99,,,0.00,Acu-Link.com,2014-02-18 07:08:00,
2014-02-18 01:23:00,34.7,25.9,29.62,South,180,4.2,-999.0,70,-99.99,,,0.00,Acu-Link.com,2014-02-18 07:23:00,
2014-02-18 01:39:00,33.6,25.6,29.61,SSE,157,3.2,-999.0,72,-99.99,,,0.00,Acu-Link.com,2014-02-18 07:39:00,
2014-02-18 01:54:00,32.7,25.0,29.60,South,180,2.7,-999.0,73,-99.99,,,0.00,Acu-Link.com,2014-02-18 07:54:00,
2014-02-18 02:09:00,32.2,25.2,29.59,South,180,2.7,-999.0,75,-99.99,,,0.00,Acu-Link.com,2014-02-18 08:09:00,
2014-02-18 02:24:00,32.5,25.2,29.58,South,180,4.7,-999.0,74,-99.99,,,0.00,Acu-Link.com,2014-02-18 08:24:00,
2014-02-18 02:39:00,32.7,25.0,29.58,SSE,157,3.7,-999.0,73,-99.99,,,0.00,Acu-Link.com,2014-02-18 08:39:00,
2014-02-18 02:54:00,32.9,25.2,29.57,South,180,4.7,-999.0,73,-99.99,,,0.00,Acu-Link.com,2014-02-18 08:54:00,
2014-02-18 03:10:00,32.5,24.8,29.57,South,180,4.2,-999.0,73,-99.99,,,0.00,Acu-Link.com,2014-02-18 09:10:00,
2014-02-18 03:25:00,32.0,25.0,29.56,South,180,4.2,-999.0,75,-99.99,,,0.00,Acu-Link.com,2014-02-18 09:25:00,
2014-02-18 03:40:00,31.5,24.8,29.56,SSE,157,3.2,-999.0,76,-99.99,,,0.00,Acu-Link.com,2014-02-18 09:40:00,
2014-02-18 03:55:00,30.9,24.2,29.56,SSW,202,3.7,-999.0,76,-99.99,,,0.00,Acu-Link.com,2014-02-18 09:55:00,
2014-02-18 04:11:00,32.0,24.7,29.55,South,180,1.7,-999.0,74,-99.99,,,0.00,Acu-Link.com,2014-02-18 10:11:00,
2014-02-18 04:26:00,31.1,24.1,29.55,SSE,157,2.7,-999.0,75,-99.99,,,0.00,Acu-Link.com,2014-02-18 10:26:00,
2014-02-18 04:41:00,30.9,24.2,29.55,SSE,157,2.2,-999.0,76,-99.99,,,0.00,Acu-Link.com,2014-02-18 10:41:00,
2014-02-18 04:56:00,31.3,24.3,29.55,SSE,157,2.7,-999.0,75,-99.99,,,0.00,Acu-Link.com,2014-02-18 10:56:00,
2014-02-18 05:12:00,29.8,23.5,29.55,SSE,157,1.7,-999.0,77,-99.99,,,0.00,Acu-Link.com,2014-02-18 11:12:00,
2014-02-18 05:27:00,28.8,23.1,29.55,SSE,157,0.0,-999.0,79,-99.99,,,0.00,Acu-Link.com,2014-02-18 11:27:00,
2014-02-18 05:42:00,30.4,24.1,29.56,West,270,1.1,-999.0,77,-99.99,,,0.00,Acu-Link.com,2014-02-18 11:42:00,
2014-02-18 05:57:00,29.5,23.5,29.55,SSE,157,1.1,-999.0,78,-99.99,,,0.00,Acu-Link.com,2014-02-18 11:57:00,
2014-02-18 06:13:00,28.2,22.8,29.54,NW,315,0.0,-999.0,80,-99.99,,,0.00,Acu-Link.com,2014-02-18 12:13:00,
2014-02-18 06:28:00,27.0,22.3,29.54,NNE,22,0.0,-999.0,82,-99.99,,,0.00,Acu-Link.com,2014-02-18 12:28:00,
2014-02-18 06:43:00,26.1,21.9,29.53,East,90,0.0,-999.0,84,-99.99,,,0.00,Acu-Link.com,2014-02-18 12:43:00,
2014-02-18 06:58:00,25.0,20.9,29.53,East,90,0.0,-999.0,84,-99.99,,,0.00,Acu-Link.com,2014-02-18 12:58:00,
2014-02-18 07:13:00,25.0,21.7,29.53,SSE,157,2.7,-999.0,87,-99.99,,,0.00,Acu-Link.com,2014-02-18 13:13:00,
2014-02-18 07:29:00,27.3,22.8,29.54,SSE,157,2.2,-999.0,83,-99.99,,,0.00,Acu-Link.com,2014-02-18 13:29:00,
2014-02-18 07:44:00,27.5,22.7,29.55,South,180,2.7,-999.0,82,-99.99,,,0.00,Acu-Link.com,2014-02-18 13:44:00,
2014-02-18 07:59:00,28.6,23.2,29.55,South,180,1.7,-999.0,80,-99.99,,,0.00,Acu-Link.com,2014-02-18 13:59:00,
2014-02-18 08:15:00,32.0,25.0,29.56,North,0,0.0,-999.0,75,-99.99,,,0.00,Acu-Link.com,2014-02-18 14:15:00,
2014-02-18 08:30:00,36.1,26.2,29.55,SSW,202,1.7,-999.0,67,-99.99,,,0.00,Acu-Link.com,2014-02-18 14:30:00,
2014-02-18 08:45:00,38.1,27.0,29.56,SW,225,2.2,-999.0,64,-99.99,,,0.00,Acu-Link.com,2014-02-18 14:45:00,
2014-02-18 09:01:00,39.9,28.3,29.57,North,0,1.7,-999.0,63,-99.99,,,0.00,Acu-Link.com,2014-02-18 15:01:00,
2014-02-18 09:16:00,41.5,29.5,29.58,WSW,247,3.7,-999.0,62,-99.99,,,0.00,Acu-Link.com,2014-02-18 15:16:00,
2014-02-18 09:31:00,41.7,30.0,29.59,NNW,337,3.7,-999.0,63,-99.99,,,0.00,Acu-Link.com,2014-02-18 15:31:00,
2014-02-18 09:46:00,43.9,30.9,29.59,WNW,292,2.2,-999.0,60,-99.99,,,0.00,Acu-Link.com,2014-02-18 15:46:00,
2014-02-18 10:01:00,42.1,30.8,29.59,SSW,202,2.7,-999.0,64,-99.99,,,0.00,Acu-Link.com,2014-02-18 16:01:00,
2014-02-18 10:17:00,43.0,32.1,29.59,North,0,2.7,-999.0,65,-99.99,,,0.00,Acu-Link.com,2014-02-18 16:17:00,
2014-02-18 10:32:00,45.7,33.4,29.59,WSW,247,1.7,-999.0,62,-99.99,,,0.00,Acu-Link.com,2014-02-18 16:32:00,
2014-02-18 10:47:00,48.2,35.0,29.59,SSW,202,1.7,-999.0,60,-99.99,,,0.00,Acu-Link.com,2014-02-18 16:47:00,
2014-02-18 11:02:00,51.3,35.7,29.60,South,180,1.1,-999.0,55,-99.99,,,0.00,Acu-Link.com,2014-02-18 17:02:00,
2014-02-18 11:18:00,49.5,34.9,29.60,ENE,67,2.7,-999.0,57,-99.99,,,0.00,Acu-Link.com,2014-02-18 17:18:00,
2014-02-18 11:33:00,48.4,35.6,29.61,NNW,337,8.3,-999.0,61,-99.99,,,0.00,Acu-Link.com,2014-02-18 17:33:00,
2014-02-18 11:48:00,48.0,34.8,29.62,NNW,337,5.8,-999.0,60,-99.99,,,0.00,Acu-Link.com,2014-02-18 17:48:00,
2014-02-18 12:03:00,48.4,36.0,29.62,NW,315,6.8,-999.0,62,-99.99,,,0.00,Acu-Link.com,2014-02-18 18:03:00,
2014-02-18 12:19:00,47.8,35.8,29.62,NNE,22,5.8,-999.0,63,-99.99,,,0.00,Acu-Link.com,2014-02-18 18:19:00,
2014-02-18 12:34:00,48.6,35.4,29.61,NW,315,4.7,-999.0,60,-99.99,,,0.00,Acu-Link.com,2014-02-18 18:34:00,
2014-02-18 12:49:00,50.7,35.6,29.61,NW,315,2.7,-999.0,56,-99.99,,,0.00,Acu-Link.com,2014-02-18 18:49:00,
2014-02-18 13:04:00,49.5,36.2,29.63,North,0,2.7,-999.0,60,-99.99,,,0.00,Acu-Link.com,2014-02-18 19:04:00,
2014-02-18 13:20:00,50.4,36.6,29.63,NNE,22,8.9,-999.0,59,-99.99,,,0.00,Acu-Link.com,2014-02-18 19:20:00,
2014-02-18 13:35:00,49.3,36.8,29.64,WNW,292,10.9,-999.0,62,-99.99,,,0.00,Acu-Link.com,2014-02-18 19:35:00,
2014-02-18 13:50:00,49.1,37.5,29.65,NNW,337,7.8,-999.0,64,-99.99,,,0.00,Acu-Link.com,2014-02-18 19:50:00,
2014-02-18 14:05:00,49.5,37.4,29.65,NNW,337,6.8,-999.0,63,-99.99,,,0.00,Acu-Link.com,2014-02-18 20:05:00,
2014-02-18 14:20:00,49.6,37.9,29.66,NW,315,6.3,-999.0,64,-99.99,,,0.00,Acu-Link.com,2014-02-18 20:20:00,
2014-02-18 14:35:00,50.2,37.7,29.67,NNW,337,9.9,-999.0,62,-99.99,,,0.00,Acu-Link.com,2014-02-18 20:35:00,
2014-02-18 14:50:00,47.3,36.9,29.67,NNW,337,11.4,-999.0,67,-99.99,,,0.00,Acu-Link.com,2014-02-18 20:50:00,
2014-02-18 15:05:00,46.4,37.2,29.68,NNW,337,6.8,-999.0,70,-99.99,,,0.00,Acu-Link.com,2014-02-18 21:05:00,
2014-02-18 15:20:00,46.6,37.7,29.69,NW,315,6.8,-999.0,71,-99.99,,,0.00,Acu-Link.com,2014-02-18 21:20:00,
2014-02-18 15:36:00,45.3,37.5,29.69,WNW,292,3.7,-999.0,74,-99.99,,,0.00,Acu-Link.com,2014-02-18 21:36:00,
2014-02-18 15:51:00,44.2,37.1,29.70,NW,315,7.3,-999.0,76,-99.99,,,0.00,Acu-Link.com,2014-02-18 21:51:00,
2014-02-18 16:06:00,45.9,37.4,29.70,NW,315,11.4,-999.0,72,-99.99,,,0.00,Acu-Link.com,2014-02-18 22:06:00,
2014-02-18 16:21:00,45.5,36.7,29.71,North,0,8.9,-999.0,71,-99.99,,,0.00,Acu-Link.com,2014-02-18 22:21:00,
2014-02-18 16:36:00,45.9,37.0,29.72,NW,315,11.4,-999.0,71,-99.99,,,0.00,Acu-Link.com,2014-02-18 22:36:00,
2014-02-18 16:51:00,42.8,35.8,29.73,WNW,292,7.3,-999.0,76,-99.99,,,0.00,Acu-Link.com,2014-02-18 22:51:00,
2014-02-18 17:06:00,44.8,37.4,29.74,NNW,337,6.8,-999.0,75,-99.99,,,0.00,Acu-Link.com,2014-02-18 23:06:00,
2014-02-18 17:21:00,42.1,36.1,29.75,NNW,337,5.3,-999.0,79,-99.99,,,0.00,Acu-Link.com,2014-02-18 23:21:00,
2014-02-18 17:37:00,40.6,35.2,29.75,NW,315,4.7,-999.0,81,-99.99,,,0.00,Acu-Link.com,2014-02-18 23:37:00,
2014-02-18 17:52:00,39.0,34.0,29.76,NW,315,4.2,-999.0,82,-99.99,,,0.00,Acu-Link.com,2014-02-18 23:52:00,
2014-02-18 18:07:00,37.6,33.2,29.78,NW,315,5.3,-999.0,84,-99.99,,,0.00,Acu-Link.com,2014-02-19 00:07:00,
2014-02-18 18:22:00,38.7,33.7,29.78,WNW,292,7.8,-999.0,82,-99.99,,,0.00,Acu-Link.com,2014-02-19 00:22:00,
2014-02-18 18:37:00,38.8,33.2,29.80,NNW,337,5.3,-999.0,80,-99.99,,,0.00,Acu-Link.com,2014-02-19 00:37:00,
2014-02-18 18:53:00,37.2,32.5,29.81,NNW,337,5.8,-999.0,83,-99.99,,,0.00,Acu-Link.com,2014-02-19 00:53:00,
2014-02-18 19:08:00,37.2,32.5,29.82,NNW,337,5.8,-999.0,83,-99.99,,,0.00,Acu-Link.com,2014-02-19 01:08:00,
2014-02-18 19:23:00,37.4,33.0,29.83,NNW,337,6.8,-999.0,84,-99.99,,,0.00,Acu-Link.com,2014-02-19 01:23:00,
2014-02-18 19:39:00,37.0,32.9,29.83,NNW,337,4.7,-999.0,85,-99.99,,,0.00,Acu-Link.com,2014-02-19 01:39:00,
2014-02-18 19:54:00,36.5,32.7,29.84,NW,315,7.3,-999.0,86,-99.99,,,0.00,Acu-Link.com,2014-02-19 01:54:00,
2014-02-18 20:09:00,37.0,33.2,29.84,NNW,337,7.8,-999.0,86,-99.99,,,0.00,Acu-Link.com,2014-02-19 02:09:00,
2014-02-18 20:24:00,36.3,32.5,29.85,NNW,337,4.2,-999.0,86,-99.99,,,0.00,Acu-Link.com,2014-02-19 02:24:00,
2014-02-18 20:39:00,35.4,32.2,29.85,NNW,337,8.9,-999.0,88,-99.99,,,0.00,Acu-Link.com,2014-02-19 02:39:00,
2014-02-18 20:54:00,34.9,32.0,29.85,NW,315,5.3,-999.0,89,-99.99,,,0.00,Acu-Link.com,2014-02-19 02:54:00,
2014-02-18 21:09:00,34.0,31.4,29.86,NNW,337,4.7,-999.0,90,-99.99,,,0.00,Acu-Link.com,2014-02-19 03:09:00,
2014-02-18 21:24:00,34.2,31.6,29.86,NW,315,5.3,-999.0,90,-99.99,,,0.00,Acu-Link.com,2014-02-19 03:24:00,
2014-02-18 21:40:00,34.2,31.6,29.86,NNW,337,5.3,-999.0,90,-99.99,,,0.00,Acu-Link.com,2014-02-19 03:40:00,
2014-02-18 21:55:00,33.8,31.2,29.87,West,270,4.2,-999.0,90,-99.99,,,0.00,Acu-Link.com,2014-02-19 03:55:00,
2014-02-18 22:10:00,33.3,31.0,29.87,NNW,337,2.7,-999.0,91,-99.99,,,0.00,Acu-Link.com,2014-02-19 04:10:00,
2014-02-18 22:25:00,32.9,30.8,29.87,NNW,337,3.7,-999.0,92,-99.99,,,0.00,Acu-Link.com,2014-02-19 04:25:00,
2014-02-18 22:40:00,32.9,30.8,29.86,East,90,2.7,-999.0,92,-99.99,,,0.00,Acu-Link.com,2014-02-19 04:40:00,
2014-02-18 22:56:00,32.7,30.6,29.86,WSW,247,2.2,-999.0,92,-99.99,,,0.00,Acu-Link.com,2014-02-19 04:56:00,
2014-02-18 23:11:00,31.8,29.7,29.87,West,270,1.7,-999.0,92,-99.99,,,0.00,Acu-Link.com,2014-02-19 05:11:00,
2014-02-18 23:26:00,31.6,29.5,29.86,East,90,1.7,-999.0,92,-99.99,,,0.00,Acu-Link.com,2014-02-19 05:26:00,
2014-02-18 23:41:00,30.9,29.1,29.86,North,0,1.1,-999.0,93,-99.99,,,0.00,Acu-Link.com,2014-02-19 05:41:00,
2014-02-18 23:57:00,30.6,28.8,29.86,NNE,22,0.0,-999.0,93,-99.99,,,0.00,Acu-Link.com,2014-02-19 05:57:00,